[[{"header":{"parameterUnit":"m.s-1","parameterCategory":1,"la1":30.2991,"la2":30.254,"lo1":-89.0895,"lo2":-89.0444,"dy":0.0017,"dx":0.0017,"nx":28,"ny":28,"refTime":"2024-06-07T09:00:00:Z","depth":0,"parameterNumber":2,"parameterNumberName":"U-component_of_WINDS"},"data":[0,0,0,0,0,0,0,0,0,0,0,0,0,0,0,0,0,0,0,0,0,0,0,0,0,0,0,0,0,0,0,0,0,0,0,0,0,0,0,0,0,0,0,0,0,0,0,0,0,0,0,0,0,0,0,0,0,0,0.5415,0.5416,0,0.5494,0.5495,0.5496,0.552,0.5519,0.5519,0.5519,0.5601,0.5604,0.5606,0,0,0,0,0,0,0,0,0,0,0,0,0,0.5285,0.5287,0.5415,0.5416,0.5417,0.5494,0.5495,0.5496,0.552,0.5519,0.5519,0.5518,0.56,0.5603,0.5606,0,0,0,0,0,0,0,0,0,0,0,0,0,0.5351,0.5288,0.5415,0.5438,0.5441,0.5494,0.5495,0.5496,0.552,0.5519,0.5519,0.5518,0.5599,0.5603,0.5607,0.5643,0,0,0.5619,0.562,0,0,0,0,0,0,0,0,0.5347,0.5355,0.5433,0.5436,0.544,0.5496,0.548,0.5546,0.552,0.549,0.5519,0.5518,0.5567,0.5573,0.559,0.5647,0.565,0.5619,0.5621,0.5623,0.5624,0,0,0,0,0,0,0,0.5342,0.5352,0.5446,0.5435,0.5438,0.5445,0.5453,0.5492,0.5531,0.5493,0.5494,0.5503,0.5569,0.5586,0.5592,0.5652,0.5619,0.5622,0.5625,0.5626,0.5742,0.5742,0,0,0,0,0,0,0.5334,0.5348,0.5444,0.5449,0.5391,0.5447,0.5457,0.5479,0.5531,0.5538,0.5504,0.5504,0.558,0.5587,0.5595,0.564,0.5623,0.5627,0.5629,0.5741,0.5742,0.5743,0,0,0,0,0,0,0.5331,0.5342,0.544,0.5399,0.5412,0.545,0.5474,0.5481,0.5498,0.5539,0.5546,0.5514,0.5579,0.5589,0.5631,0.5643,0.5628,0.5632,0.574,0.5741,0.5742,0.573,0,0,0,0,0,0,0.5327,0.5341,0.5354,0.5399,0.5414,0.5474,0.5475,0.5483,0.5504,0.5506,0.5551,0.5558,0.558,0.5625,0.5634,0.5648,0.5635,0.5739,0.5741,0.5742,0.573,0.5731,0.5732,0,0,0,0,0,0.5322,0.5348,0.5355,0.5366,0.5432,0.5475,0.5484,0.5508,0.5505,0.552,0.5546,0.5556,0.564,0.5629,0.564,0.5655,0.5738,0.574,0.5742,0.5729,0.5731,0.5732,0,0,0,0,0,0,0.5305,0.5355,0.5363,0.5404,0.5435,0.5479,0.5498,0.5509,0.5542,0.5542,0.5571,0.5581,0.562,0.5642,0.5628,0.5692,0.569,0.5694,0.5676,0.5678,0.5679,0.5673,0.5638,0,0,0,0,0,0.5306,0.5336,0.5378,0.5411,0.5426,0.5459,0.5479,0.5495,0.5528,0.5542,0.5571,0.5604,0.5637,0.5659,0.5692,0.5733,0.5743,0.5749,0.575,0.5751,0.5754,0.5776,0.5779,0.5748,0.5748,0.5748,0,0,0.5308,0.5339,0.5357,0.5408,0.5434,0.5465,0.547,0.5503,0.5526,0.5547,0.5587,0.561,0.5648,0.5689,0.5709,0.5709,0.5765,0.5753,0.5753,0.5756,0.5778,0.5781,0.5784,0.5749,0.5749,0.5749,0,0,0.5328,0.5355,0.5385,0.541,0.5449,0.5471,0.5478,0.5521,0.5536,0.5577,0.5593,0.5622,0.5679,0.5706,0.5727,0.5756,0.5767,0.5766,0.5772,0.5794,0.5796,0.5798,0.5808,0.5812,0.5769,0.5769,0.5769,0,0.5327,0.5374,0.5399,0.543,0.5452,0.5472,0.5502,0.5526,0.5574,0.5589,0.5588,0.566,0.5688,0.5735,0.5742,0.5758,0.5767,0.5761,0.5793,0.5796,0.5799,0.5809,0.5812,0.5769,0.5769,0.5769,0.5769,0,0.5369,0.5402,0.5421,0.5466,0.549,0.5521,0.5551,0.5573,0.5586,0.5608,0.565,0.5683,0.5723,0.5736,0.575,0.5785,0.5783,0.5788,0.5786,0.5801,0.5811,0.5815,0.5768,0.5769,0.5769,0.5769,0,0,0.5381,0.5439,0.5445,0.5466,0.551,0.5536,0.5568,0.5606,0.5624,0.5657,0.5684,0.5732,0.5736,0.576,0.5777,0.5796,0.5817,0.5798,0.58,0.58,0.5857,0.5853,0.5857,0.5824,0.5825,0.5826,0.5853,0,0.5406,0.5463,0.5486,0.5532,0.5562,0.5581,0.5609,0.5639,0.566,0.5689,0.5713,0.5746,0.575,0.5764,0.5784,0.581,0.5829,0.5809,0.585,0.5851,0.5839,0.5862,0.5858,0.5883,0.5858,0.5858,0.5859,0,0.5443,0.5475,0.5523,0.5564,0.5577,0.5601,0.5638,0.5666,0.5701,0.5715,0.5741,0.5757,0.5792,0.5788,0.5835,0.5821,0.5839,0.5855,0.5856,0.5861,0.5855,0.5867,0.5891,0.5894,0.5865,0.5865,0.5864,0,0.5445,0.5501,0.5537,0.5554,0.5602,0.5618,0.5639,0.5673,0.5695,0.5728,0.5742,0.5778,0.5798,0.5826,0.5852,0.5846,0.5897,0.5895,0.5909,0.5909,0.5919,0.5918,0.5946,0.5932,0.5931,0.5931,0.5931,0,0.5471,0.55,0.5538,0.5561,0.5594,0.562,0.5652,0.5675,0.5705,0.5732,0.5751,0.5776,0.5809,0.5838,0.5859,0.5894,0.5904,0.5916,0.5921,0.5914,0.5912,0.5926,0.5925,0.5932,0.5932,0.5932,0.5932,0,0.5479,0.5506,0.5547,0.5588,0.56,0.5622,0.5658,0.568,0.5703,0.5737,0.5746,0.5781,0.5817,0.5845,0.5892,0.5905,0.5943,0.5949,0.5931,0.5933,0.5946,0.5944,0.5984,0.599,0.5972,0.5972,0.5972,0,0.5493,0.5516,0.556,0.5579,0.5599,0.563,0.5652,0.5679,0.5701,0.5742,0.5759,0.5796,0.5827,0.5883,0.5912,0.5948,0.5955,0.5966,0.596,0.5952,0.5954,0.5952,0.5955,0.5967,0.5967,0.5967,0.5967,0,0.5515,0.5527,0.5558,0.5593,0.5618,0.5647,0.5677,0.5691,0.5724,0.5748,0.5784,0.5808,0.5855,0.5891,0.593,0.5952,0.5965,0.5968,0.5973,0.5966,0.5955,0.596,0.5932,0.5967,0.5967,0.5967,0.5967,0.5967,0.5526,0.5547,0.5581,0.5614,0.5639,0.5666,0.5689,0.5714,0.5744,0.5784,0.5798,0.5835,0.587,0.5923,0.5945,0.5974,0.5976,0.5983,0.5985,0.5986,0.5985,0.595,0.5982,0.5982,0.5982,0.5982,0.5982,0,0.5549,0.5571,0.5602,0.5642,0.5668,0.5677,0.571,0.5732,0.5764,0.5794,0.5824,0.5865,0.59,0.5933,0.5969,0.5987,0.5993,0.5995,0.5994,0.5999,0.5982,0.5974,0.5989,0.5989,0.5989,0.5989,0.5989,0.5989,0.5563,0.5599,0.5615,0.5662,0.5685,0.5721,0.5739,0.5764,0.5788,0.5833,0.5862,0.5883,0.5914,0.5953,0.5986,0.5995,0.6007,0.6007,0.6017,0.6001,0.6,0.5999,0.5991,0.601,0.601,0.6032,0.6032,0.6032]},{"header":{"parameterUnit":"m.s-1","parameterCategory":1,"la1":30.2991,"la2":30.254,"lo1":-89.0895,"lo2":-89.0444,"dy":0.0017,"dx":0.0017,"nx":28,"ny":28,"refTime":"2024-06-07T09:00:00:Z","depth":0,"parameterNumber":3,"parameterNumberName":"V-component_of_WINDS"},"data":[0,0,0,0,0,0,0,0,0,0,0,0,0,0,0,0,0,0,0,0,0,0,0,0,0,0,0,0,0,0,0,0,0,0,0,0,0,0,0,0,0,0,0,0,0,0,0,0,0,0,0,0,0,0,0,0,0,0,0.1714,0.1715,0,0.1742,0.1742,0.1742,0.173,0.1729,0.1729,0.1728,0.1757,0.1758,0.176,0,0,0,0,0,0,0,0,0,0,0,0,0,0.165,0.1651,0.1714,0.1715,0.1715,0.1742,0.1742,0.1743,0.173,0.1729,0.1728,0.1728,0.1756,0.1758,0.176,0,0,0,0,0,0,0,0,0,0,0,0,0,0.1678,0.1652,0.1714,0.1712,0.1712,0.1742,0.1742,0.1743,0.173,0.1729,0.1728,0.1727,0.1756,0.1758,0.176,0.1794,0,0,0.1766,0.1767,0,0,0,0,0,0,0,0,0.1676,0.168,0.1712,0.1712,0.1712,0.1731,0.173,0.176,0.173,0.1723,0.1728,0.1727,0.1749,0.1752,0.1759,0.1795,0.1796,0.1767,0.1768,0.1769,0.1769,0,0,0,0,0,0,0,0.1674,0.1679,0.1725,0.1712,0.1713,0.1709,0.1712,0.1736,0.1742,0.1724,0.1723,0.1726,0.1749,0.1757,0.176,0.1797,0.1766,0.1768,0.177,0.1771,0.186,0.1861,0,0,0,0,0,0,0.1673,0.1678,0.1724,0.1726,0.1691,0.1711,0.1714,0.1726,0.1741,0.1743,0.1727,0.1726,0.1754,0.1757,0.1761,0.18,0.1769,0.1771,0.1772,0.1858,0.186,0.1861,0,0,0,0,0,0,0.1671,0.1677,0.1723,0.1702,0.1707,0.1713,0.1727,0.1727,0.1736,0.1744,0.1745,0.1735,0.1753,0.1758,0.1785,0.1801,0.1772,0.1774,0.1857,0.1859,0.186,0.188,0,0,0,0,0,0,0.1669,0.1676,0.169,0.1702,0.1708,0.1748,0.1728,0.1729,0.1739,0.1737,0.1751,0.1752,0.1753,0.1782,0.1787,0.1803,0.1775,0.1856,0.1858,0.186,0.1878,0.1882,0.1886,0,0,0,0,0,0.1667,0.1695,0.1691,0.1696,0.1725,0.1749,0.1752,0.1752,0.1741,0.1754,0.1759,0.1752,0.1798,0.1785,0.1791,0.1808,0.1855,0.1857,0.186,0.1876,0.1881,0.1886,0,0,0,0,0,0,0.1685,0.1697,0.1692,0.1724,0.1735,0.1746,0.1763,0.1758,0.1773,0.1771,0.177,0.1773,0.1801,0.1807,0.1792,0.184,0.1825,0.1828,0.1835,0.184,0.1844,0.1842,0.1777,0,0,0,0,0,0.1693,0.1711,0.172,0.1747,0.1753,0.1757,0.1767,0.1766,0.1778,0.1782,0.179,0.1801,0.1818,0.183,0.1846,0.1879,0.1881,0.1893,0.1897,0.19,0.1903,0.1919,0.1925,0.1869,0.1869,0.1869,0,0,0.1709,0.1718,0.1729,0.1751,0.176,0.1778,0.1761,0.1782,0.1795,0.1786,0.1812,0.1817,0.183,0.1859,0.1873,0.1865,0.1919,0.1903,0.1906,0.1907,0.1922,0.1928,0.1932,0.1871,0.187,0.187,0,0,0.1748,0.1757,0.178,0.1788,0.1801,0.1803,0.1808,0.1819,0.1822,0.1848,0.1841,0.1857,0.1886,0.1895,0.1904,0.1943,0.1937,0.1949,0.1969,0.1985,0.1989,0.1993,0.2006,0.2011,0.1952,0.1952,0.1952,0,0.1767,0.1794,0.1793,0.1813,0.1822,0.1813,0.1836,0.1845,0.1862,0.1869,0.186,0.1895,0.1904,0.1935,0.1944,0.1951,0.1957,0.1947,0.1988,0.1992,0.1996,0.2008,0.2013,0.1953,0.1953,0.1953,0.1953,0,0.1816,0.1835,0.1852,0.1868,0.1879,0.1901,0.1902,0.1913,0.1911,0.1913,0.1939,0.1948,0.1965,0.1972,0.197,0.2002,0.1997,0.1988,0.1973,0.2002,0.2014,0.2019,0.1955,0.1954,0.1954,0.1954,0,0,0.1869,0.1882,0.1888,0.1894,0.1906,0.1921,0.1941,0.1957,0.1967,0.1979,0.1995,0.202,0.2011,0.202,0.2019,0.2033,0.2062,0.2022,0.2023,0.2029,0.2097,0.2103,0.2109,0.2058,0.2059,0.206,0.2095,0,0.1908,0.1944,0.1942,0.1975,0.1992,0.1982,0.2,0.2009,0.2012,0.2026,0.2029,0.2045,0.2033,0.2039,0.2052,0.2056,0.2076,0.2053,0.2073,0.2074,0.207,0.2115,0.2122,0.2156,0.21,0.2101,0.2101,0,0.1959,0.1971,0.2006,0.2013,0.202,0.2036,0.205,0.2064,0.2073,0.2074,0.2083,0.2079,0.2099,0.2083,0.211,0.2094,0.2102,0.2105,0.2106,0.2108,0.209,0.2118,0.2166,0.2171,0.2109,0.2108,0.2108,0,0.1993,0.2018,0.2041,0.2047,0.2057,0.2068,0.2073,0.2081,0.209,0.2102,0.2108,0.2122,0.213,0.214,0.214,0.2128,0.2167,0.215,0.2167,0.2167,0.2176,0.2176,0.2226,0.2182,0.2182,0.2182,0.2181,0,0.2036,0.2058,0.2056,0.2071,0.2094,0.2091,0.2114,0.2118,0.2125,0.2139,0.2132,0.2146,0.2144,0.2158,0.2158,0.2179,0.2183,0.2184,0.2183,0.2184,0.2184,0.2189,0.2187,0.2183,0.2183,0.2182,0.2182,0,0.2079,0.2079,0.2103,0.211,0.2112,0.2129,0.2134,0.2148,0.2149,0.2167,0.2171,0.2173,0.2189,0.2189,0.2207,0.2206,0.2233,0.223,0.2229,0.2229,0.2245,0.2243,0.2301,0.2308,0.2259,0.226,0.226,0,0.2107,0.2123,0.213,0.2139,0.2144,0.2159,0.2167,0.2164,0.2174,0.2184,0.2196,0.2211,0.2223,0.2248,0.2251,0.2264,0.2261,0.228,0.2263,0.2263,0.226,0.2259,0.226,0.2284,0.2284,0.2285,0.2285,0,0.2156,0.2154,0.2167,0.2179,0.2189,0.2199,0.2208,0.2216,0.2213,0.2224,0.2239,0.2248,0.2266,0.228,0.2292,0.2297,0.229,0.229,0.2295,0.2296,0.2294,0.2294,0.2238,0.2289,0.2289,0.2288,0.2288,0.2288,0.2191,0.2204,0.2211,0.2225,0.2231,0.2239,0.2251,0.2253,0.2265,0.2279,0.2276,0.2293,0.23,0.2316,0.2322,0.2334,0.2328,0.2334,0.2336,0.2338,0.2339,0.2292,0.2337,0.2337,0.2337,0.2336,0.2336,0,0.224,0.2243,0.2255,0.2267,0.2278,0.227,0.2278,0.2288,0.2302,0.231,0.232,0.2337,0.235,0.2354,0.2366,0.2376,0.2373,0.2379,0.2378,0.2379,0.2345,0.2339,0.2381,0.2381,0.2381,0.2381,0.2381,0.2381,0.2266,0.2287,0.2286,0.2309,0.2313,0.2328,0.2334,0.2341,0.2346,0.2365,0.2375,0.2377,0.2382,0.2395,0.2406,0.2407,0.2412,0.2419,0.2418,0.2386,0.2382,0.2377,0.2372,0.242,0.242,0.2451,0.2451,0.2451]}]]